This demonstration page uses our WeatherBlox Daily Observations layout. Learn more.

Left ArrowRight Arrow

34.16533, -84.80231

Hourly Observations for May 24, 2017

Temp ( °F °C ) Dew Point ( °F °C ) Humidity (%) Winds ( mph kmh ) Pressure ( in mb ) Visibility ( mi km ) Precip ( " mm )
12:53 am 00:53 Cloudy 61 16.1 61 16.1 100 100 SSE 3 6 29.67 1005 10 16 0.00 0.00
1:53 am 01:53 Cloudy 62 16.7 62 16.7 100 100 Calm 29.65 1004 10 16 0.00 0.03
2:37 am 02:37 Mostly Cloudy 61 16.1 61 16.1 100 100 Calm 29.68 1005 10 16 0.00 0.00
2:53 am 02:53 Mostly Cloudy 62 16.7 62 16.7 100 100 Calm 29.63 1004 10 16 0.00 0.00
3:53 am 03:53 Mostly Clear 61 16.1 61 16.1 100 100 Calm 29.60 1002 10 16 0.00 0.00
4:24 am 04:24 Mostly Cloudy 60 15.6 60 15.6 100 100 Calm 29.62 1003 10 16 0.00 0.00
4:53 am 04:53 Cloudy 62 16.7 62 16.7 100 100 Calm 29.59 1002 10 16 0.00 0.00
5:01 am 05:01 Cloudy 62 16.7 62 16.7 100 100 Calm 29.62 1003 9 14 0.00 0.00
5:53 am 05:53 Cloudy 63 17.2 63 17.2 100 100 S 7 11 29.58 1002 10 16 0.00 0.00
6:03 am 06:03 Cloudy 63 17.2 63 17.2 100 100 S 7 11 29.62 1003 10 16 0.00 0.00
6:53 am 06:53 Mostly Sunny 63 17.2 63 17.2 100 100 S 5 7 29.57 1001 10 16 0.00 0.00
7:30 am 07:30 Mostly Cloudy 64 17.8 64 17.8 100 100 SE 3 6 29.59 1002 10 16 0.00 0.00
7:53 am 07:53 Mostly Cloudy 65 18.3 65 18.3 100 100 S 3 6 29.55 1001 10 16 0.00 0.00
8:10 am 08:10 Mostly Cloudy 66 18.9 66 18.9 100 100 Calm 29.59 1002 10 16 0.00 0.00
8:19 am 08:19 Mostly Cloudy 66 18.9 66 18.9 100 100 Calm 29.59 1002 10 16 0.00 0.00
8:27 am 08:27 Mostly Cloudy 66 18.9 66 18.9 100 100 Calm 29.56 1001 10 16 0.00 0.00
8:53 am 08:53 Mostly Cloudy 68 20 67 19.4 96 96 SSE 9 15 29.53 1000 10 16 0.00 0.00
9:53 am 09:53 Cloudy 68 20 67 19.4 96 96 SSE 7 11 29.52 1000 10 16 0.00 0.00
10:13 am 10:13 Cloudy 68 20 66 18.9 93 93 S 7 11 29.50 999 10 16 0.00 0.00
10:51 am 10:51 Cloudy 70 21 66 19 88 88 S 13 20 29.53 1000 10 16 0.00 0.00
10:53 am 10:53 Cloudy 69 20.6 67 19.4 93 93 S 12 19 29.52 1000 10 16 0.00 0.00
11:53 am 11:53 Cloudy 71 21.7 67 19.4 87 87 S 9 15 29.52 1000 10 16 0.00 0.00
12:02 pm 12:02 Mostly Cloudy 72 22.2 66 18.9 82 82 S 15 24 29.53 1000 10 16 0.00 0.00
12:53 pm 12:53 Mostly Cloudy 75 23.9 65 18.3 71 71 S 13 20 29.48 998 10 16 0.00 0.00
1:53 pm 13:53 Cloudy 69 20.6 63 17.2 81 81 VRB 3 6 29.49 999 10 16 0.00 0.00
2:53 pm 14:53 Mostly Sunny 73 22.8 62 16.7 69 69 VRB 3 6 29.47 998 10 16 0.00 0.00
3:53 pm 15:53 Partly Cloudy 75 23.9 60 15.6 60 60 VRB 6 9 29.46 998 10 16 0.00 0.00
4:53 pm 16:53 Partly Cloudy 74 23.3 56 13.3 54 54 undefined N/A 29.47 998 10 16 0.00 0.00
5:53 pm 17:53 Mostly Sunny 73 22.8 56 13.3 55 55 VRB 5 7 29.47 998 10 16 0.00 0.00
6:53 pm 18:53 Mostly Sunny 70 21.1 57 13.9 64 64 VRB 6 9 29.48 998 10 16 0.00 0.00
7:53 pm 19:53 Mostly Sunny 66 18.9 55 12.8 68 68 VRB 3 6 29.51 999 10 16 0.00 0.00
8:53 pm 20:53 Partly Cloudy 63 17.2 57 13.9 81 81 Calm 29.53 1000 10 16 0.00 0.00
9:53 pm 21:53 Cloudy 62 16.7 57 13.9 84 84 Calm 29.54 1000 10 16 0.00 0.00
10:53 pm 22:53 Clear 60 15.6 57 13.9 90 90 Calm 29.56 1001 10 16 0.00 0.00
11:53 pm 23:53 Mostly Cloudy 60 15.6 58 14.4 93 93 Calm 29.58 1002 10 16 0.00 0.00

Powered by AerisWeather